This demonstration page uses our WeatherBlox Daily Observations layout. Learn more.

Left ArrowRight Arrow

39.01783, -85.05884

Hourly Observations for December 25, 2020

Temp ( °F °C ) Dew Point ( °F °C ) Humidity (%) Winds ( mph kmh ) Pressure ( in mb ) Visibility ( mi km ) Precip ( " mm )
12:52 am 00:52 Cloudy with Light Snow 17 -8.3 8 -13.3 68 68 WNW 13 20 29.88 1012 4 6 0.00 0.00
1:52 am 01:52 Cloudy with Light Snow 17 -8.3 10 -12.2 74 74 W 13 20 29.86 1011 4 6 0.00 0.00
1:55 am 01:55 Cloudy with Light Snow 17 -8.3 10 -12.2 74 74 W 9 15 29.91 1013 3 4 0.00 0.00
2:02 am 02:02 Cloudy with Light Snow 16 -8.9 11 -11.7 80 80 W 13 20 29.91 1013 2 2 0.00 0.00
2:21 am 02:21 Cloudy 17 -8.3 11 -11.7 77 77 W 10 17 29.91 1013 8 13 0.00 0.00
2:52 am 02:52 Cloudy with Light Snow 17 -8.3 9 -12.8 70 70 W 13 20 29.86 1011 4 6 0.00 0.00
3:01 am 03:01 Cloudy with Light Snow 17 -8.3 10 -12.2 74 74 WNW 13 20 29.91 1013 2 3 0.00 0.00
3:39 am 03:39 Cloudy with Haze 16 -8.9 11 -11.7 80 80 WNW 10 17 29.90 1013 1 2 0.00 0.00
3:52 am 03:52 Cloudy with Light Snow 16 -8.9 11 -11.7 80 80 WNW 10 17 29.85 1011 1 2 0.00 0.00
4:19 am 04:19 Cloudy with Light Snow 16 -8.9 10 -12.2 77 77 WNW 9 15 29.89 1012 3 5 0.00 0.00
4:26 am 04:26 Cloudy with Light Snow 16 -8.9 10 -12.2 77 77 WNW 10 17 29.89 1012 3 5 0.00 0.00
4:38 am 04:38 Cloudy with Light Snow 16 -8.9 10 -12.2 77 77 WNW 12 19 29.89 1012 5 8 0.00 0.00
4:52 am 04:52 Cloudy 16 -8.9 11 -11.7 80 80 NW 9 15 29.85 1011 8 13 0.00 0.00
5:01 am 05:01 Cloudy with Light Snow 16 -8.9 11 -11.7 80 80 NW 12 19 29.90 1013 3 4 0.00 0.00
5:24 am 05:24 Cloudy with Light Snow 16 -8.9 10 -12.2 77 77 WNW 13 20 29.90 1013 4 6 0.00 0.00
5:36 am 05:36 Cloudy with Light Snow 16 -8.9 9 -12.8 74 74 NW 14 22 29.91 1013 7 11 0.00 0.00
5:52 am 05:52 Cloudy 15 -9.4 9 -12.8 77 77 WNW 16 26 29.86 1011 7 11 0.00 0.00
6:37 am 06:37 Cloudy 15 -9.4 8 -13.3 74 74 WNW 15 24 29.92 1013 9 14 0.00 0.00
6:52 am 06:52 Cloudy with Light Snow 14 -10 7 -13.9 73 73 WNW 14 22 29.88 1012 7 11 0.00 0.00
7:08 am 07:08 Cloudy with Light Snow 14 -10 7 -13.9 73 73 WNW 14 22 29.93 1014 5 8 0.00 0.00
7:52 am 07:52 Mostly Cloudy 12 -11.1 3 -16.1 67 67 W 17 28 29.91 1013 10 16 0.00 0.00
8:29 am 08:29 Mostly Cloudy 11 -11.7 4 -15.6 73 73 W 17 28 29.99 1016 10 16 N/A
8:52 am 08:52 Mostly Cloudy 12 -11.1 4 -15.6 70 70 W 17 28 29.95 1014 9 14 N/A
9:52 am 09:52 Cloudy 13 -10.6 5 -15 70 70 W 14 22 29.96 1015 7 11 0.00 0.00
10:52 am 10:52 Cloudy with Haze 14 -10 6 -14.4 71 71 W 13 20 29.98 1015 4 6 N/A
11:11 am 11:11 Cloudy 15 -9.4 6 -14.4 67 67 W 13 20 30.02 1017 7 11 N/A
11:52 am 11:52 Cloudy 15 -9.4 6 -14.4 67 67 W 14 22 29.97 1015 7 11 0.00 0.00
12:06 pm 12:06 Cloudy with Haze 15 -9.4 6 -14.4 67 67 W 18 30 30.02 1017 6 10 N/A
12:26 pm 12:26 Cloudy with Haze 15 -9.4 6 -14.4 67 67 W 15 24 30.02 1017 4 6 0.00 0.00
12:52 pm 12:52 Cloudy with Haze 15 -9.4 6 -14.4 67 67 W 12 19 29.98 1015 4 6 0.00 0.00
1:27 pm 13:27 Cloudy with Light Snow 16 -8.9 7 -13.9 67 67 W 15 24 30.03 1017 2 3 0.00 0.00
1:45 pm 13:45 Cloudy with Light Snow 17 -8.3 8 -13.3 68 68 W 14 22 30.05 1018 3 5 0.00 0.00
1:52 pm 13:52 Cloudy with Light Snow 16 -8.9 7 -13.9 67 67 W 17 28 30.01 1016 5 8 0.00 0.00
2:52 pm 14:52 Cloudy with Light Snow 16 -8.9 7 -13.9 67 67 WSW 13 20 30.01 1016 7 11 0.00 0.00
3:12 pm 15:12 Cloudy with Light Snow 16 -8.9 6 -14.4 65 65 WSW 14 22 30.05 1018 10 16 0.00 0.00
3:52 pm 15:52 Cloudy 17 -8.3 6 -14.4 62 62 W 16 26 30.03 1017 10 16 0.00 0.00
4:39 pm 16:39 Cloudy 17 -8.3 6 -14.4 62 62 W 15 24 30.08 1019 10 16 N/A
4:52 pm 16:52 Cloudy 17 -8.3 6 -14.4 62 62 W 15 24 30.04 1017 10 16 N/A
5:13 pm 17:13 Mostly Cloudy 16 -8.9 6 -14.4 65 65 W 16 26 30.09 1019 10 16 N/A
5:24 pm 17:24 Cloudy 16 -8.9 5 -15 62 62 W 14 22 30.10 1019 10 16 N/A
5:52 pm 17:52 Cloudy 15 -9.4 4 -15.6 61 61 W 13 20 30.07 1018 10 16 N/A
6:52 pm 18:52 Mostly Clear 14 -10 3 -16.1 61 61 WSW 14 22 30.09 1019 10 16 N/A
7:52 pm 19:52 Mostly Cloudy 13 -10.6 3 -16.1 64 64 WSW 12 19 30.10 1019 10 16 N/A
8:52 pm 20:52 Mostly Cloudy 13 -10.6 3 -16.1 64 64 WSW 12 19 30.10 1019 10 16 N/A
9:52 pm 21:52 Mostly Clear 12 -11.1 4 -15.6 70 70 SW 10 17 30.10 1019 10 16 N/A
10:52 pm 22:52 Partly Cloudy 12 -11.1 4 -15.6 70 70 SW 13 20 30.10 1019 10 16 N/A
11:52 pm 23:52 Mostly Cloudy 13 -10.6 4 -15.6 67 67 SW 13 20 30.11 1020 10 16 N/A

Powered by AerisWeather